Showing default

O3B FM11, 40349

Orbit data source: Space-Track

O3B FM11, 40349 is a payload satellite owned by O3B (JE) that was launched on Thu, 18 Dec 2014 UTC via a SOYUZ-ST-B launch vehicle from the French Guiana (FRGUI). Payloads include a variety of satellites, spacecraft, and rockets equipped with specific instruments for various scientific and technological missions. These include communications satellites like Starlink; space stations such as the ISS; scientific satellites like the Hubble; Earth observation satellites from companies like Planet Labs, Umbra, and HawkEye 360; GPS; miniature CubeSats for education and research; and military/defense satellites.

Loading next visibility...
O3B FM11 details
Identifier
40349, 2014-083B
Orbit
Active
Last TLE update2 days ago
Origin
Flag of JEO3B (JE / O3B)
ManufacturerThales Alenia
MissionOperational Commercial Communications
Bus & MotorPRISMA?, LS-400 AOCS?
Mass700 kg wet, ~500 kg dry
Launch date (UTC)
2014-12-18 (10 years ago)
Launch vehicle
SOYUZ-ST-B
Launch site
French Guiana (FRGUI)
Object type
Payload
Rocket body
Debris
Shape & HBRTrap Box + 2 Pan, 12 m
Radar Cross Section21.980 m², Large (>1 m²)

Expand to show TLE details & history

TLE from 2 days ago
0 O3B FM11
1 40349U 14083B   24359.06777383 -.00000016  00000-0  00000-0 0  9998
2 40349   0.0513 353.5723 0002346 294.3403  72.0627  5.00115667182881
Epoch: 2024-12-24T01:37Z
Definitive object data (Epoch: 2024-12-24T01:37:35.658Z)
Latitude0.00606°
Longitude-117.47974°
Altitude8,063.326 km
Speed5.255 km/s
True Right ascension00h 00m 00s
True Declination0° 00' 22"
Sunlit
Object was in daylight at TLE epoch
Visualization TLE readout
Latitude0.03796°
Longitude-82.33744°
Altitude8,065.29 km
Speed5.254 km/s
Apparent Right ascension01h 32m 32s
Apparent Declination-12° 43' 02"
Sunlit
Object is in daylight
Visualization observer readout
Local Sidereal Time11:01:11
Azimuth298.544° NW
Elevation-47.065°
Doppler factor1
Orbital elements
Apogee altitude8,072.335 km
Perigee altitude8,065.556 km
Semi-major axis14,447.082 km
Eccentricity0.0002346
Inclination0.0513°
RAAN353.5723°
Arg. of periapsis294.3403°
True anomaly72.08828°
Mean anomaly72.0627°
Eccentric anomaly72.07549°
Mean motion1.24989 °/min
BSTARUnknown
Orbital period288.02 mins
Loading maneuver chart data...
Loading historical data...
Loading historical data...
Loading historical data...
Loading historical data...
Loading historical data...
Loading historical data...
Loading historical data...
Other satellites on launch #83 in the year 2014 (2014-12-18 UTC)

O3B FM11 Visibility forecast

Observer location: undefined°, undefined

Span
Click to sort rows by Start time (UTC) header in descending order
Start Az.
Max El. time (UTC)
Max El. Az.
Max El.
End time (UTC)
End Az.
79 mins2024-12-26 13:10:48.079Z231.861° WSW2024-12-26 13:49:48.079Z180.323° SSW24.347°2024-12-26 14:29:48.079Z127.6° SE
78 mins2024-12-26 19:11:48.079Z230.808° WSW2024-12-26 19:49:48.079Z180.282° SSW24.317°2024-12-26 20:29:48.079Z127.532° SE
78 mins2024-12-27 01:11:48.079Z230.794° WSW2024-12-27 01:49:48.079Z180.24° SSW24.393°2024-12-27 02:29:48.079Z127.483° SE
79 mins2024-12-27 07:10:48.079Z231.845° WSW2024-12-27 07:49:48.079Z180.281° SSW24.423°2024-12-27 08:29:48.079Z127.551° SE
|